Location: Newark
(21.1700°N, 79.6500°E)
Time: 14:55:44
(UTC+00:00)

N. Korean satellite - Pass Details

Date: 10 December 2019
Orbit: 454 x 508 km, 97.2° (Epoch: 17 January)

Event Time Altitude Azimuth Distance (km) Brightness Sun altitude
Rises 12:21:31 0° 185° (S) 2,592 10.7 -5.4°
Reaches altitude 10° 12:23:43 10° 194° (SSW) 1,713 9.9 -5.8°
Maximum altitude 12:27:07 35° 261° (W) 830 8.6 -6.6°
Drops below altitude 10° 12:30:33 10° 328° (NNW) 1,719 9.5 -7.3°
Sets 12:32:46 0° 338° (NNW) 2,603 10.3 -7.8°
